When you browse on this site, cookies collect data to enhance your experience and personalize the content and advertising you see.
Visit our Privacy Policy to learn more. By continuing to use the site, you agree to this use of cookies and data.
  • In Slovakia
  • List of Countries
  • For 7 days
  • Water Temperature
  • Weather Map
  • Weather Widgets
  • user-avatar
    Login

    Hourly Weather Voronino

    Today, 16 September, Monday

    Time Temperature Precipitation Wind Pressure Humidity
    00:00 +14°C° 0.1 mm 5 mps 742 mmHg 66%
    01:00 +14°C° 0.1 mm 5 mps 741 mmHg 69%
    02:00 +14°C° 0 mm 5 mps 741 mmHg 68%
    03:00 +14°C° 0.1 mm 5 mps 741 mmHg 70%
    04:00 +13°C° 0.1 mm 5 mps 741 mmHg 72%
    05:00 +13°C° 0.1 mm 6 mps 741 mmHg 74%
    06:00 +13°C° 0 mm 6 mps 741 mmHg 73%
    07:00 +13°C° 0 mm 6 mps 741 mmHg 72%
    08:00 +12°C° 0 mm 7 mps 741 mmHg 72%
    09:00 +14°C° 0 mm 7 mps 741 mmHg 66%
    10:00 +15°C° 0 mm 7 mps 741 mmHg 61%
    11:00 +15°C° 0 mm 8 mps 741 mmHg 55%
    12:00 +15°C° 0 mm 7 mps 741 mmHg 56%
    13:00 +15°C° 0 mm 7 mps 741 mmHg 57%
    14:00 +14°C° 0 mm 7 mps 741 mmHg 57%
    15:00 +14°C° 0 mm 7 mps 741 mmHg 58%
    16:00 +14°C° 0 mm 7 mps 741 mmHg 59%
    17:00 +12°C° 0 mm 7 mps 741 mmHg 60%
    18:00 +13°C° 0 mm 6 mps 741 mmHg 62%
    19:00 +11°C° 0 mm 6 mps 741 mmHg 65%
    20:00 +10°C° 0 mm 5 mps 741 mmHg 68%
    21:00 +9°C° 0 mm 5 mps 741 mmHg 70%
    22:00 +9°C° 0 mm 5 mps 740 mmHg 73%
    23:00 +8°C° 0 mm 4 mps 740 mmHg 76%

    Tomorrow, 17 September, Tuesday

    Time Temperature Precipitation Wind Pressure Humidity
    00:00 +8°C° 0 mm 4 mps 740 mmHg 76%
    01:00 +7°C° 0 mm 4 mps 740 mmHg 76%
    02:00 +7°C° 0 mm 4 mps 740 mmHg 77%
    03:00 +7°C° 0 mm 4 mps 740 mmHg 77%
    04:00 +6°C° 0 mm 5 mps 740 mmHg 78%
    05:00 +6°C° 0 mm 5 mps 739 mmHg 79%
    06:00 +7°C° 0 mm 5 mps 739 mmHg 79%
    07:00 +7°C° 0 mm 5 mps 739 mmHg 78%
    08:00 +8°C° 0 mm 6 mps 739 mmHg 78%
    09:00 +9°C° 0 mm 6 mps 739 mmHg 72%
    10:00 +11°C° 0 mm 6 mps 739 mmHg 66%
    11:00 +12°C° 0 mm 7 mps 739 mmHg 60%
    12:00 +13°C° 0.2 mm 6 mps 738 mmHg 60%
    13:00 +13°C° 0.2 mm 6 mps 738 mmHg 60%
    14:00 +14°C° 0.2 mm 6 mps 737 mmHg 60%
    15:00 +13°C° 0.3 mm 6 mps 737 mmHg 64%
    16:00 +12°C° 0.3 mm 5 mps 737 mmHg 68%
    17:00 +12°C° 0.3 mm 5 mps 736 mmHg 71%
    18:00 +10°C° 0.3 mm 5 mps 736 mmHg 76%
    19:00 +10°C° 0.3 mm 4 mps 736 mmHg 80%
    20:00 +8°C° 0.3 mm 4 mps 735 mmHg 85%
    21:00 +8°C° 0.2 mm 5 mps 735 mmHg 85%
    22:00 +7°C° 0.2 mm 6 mps 735 mmHg 85%
    23:00 +6°C° 0.2 mm 7 mps 735 mmHg 85%

    Day after tomorrow, 18 September, Wednesday

    Time Temperature Precipitation Wind Pressure Humidity
    00:00 +5°C° 0 mm 6 mps 734 mmHg 88%
    01:00 +4°C° 0 mm 6 mps 734 mmHg 90%
    02:00 +3°C° 0 mm 5 mps 734 mmHg 92%
    03:00 +3°C° 0 mm 5 mps 734 mmHg 90%
    04:00 +5°C° 0 mm 5 mps 734 mmHg 88%
    05:00 +4°C° 0 mm 6 mps 734 mmHg 86%
    06:00 +4°C° 0 mm 6 mps 735 mmHg 85%
    07:00 +4°C° 0 mm 6 mps 735 mmHg 84%
    08:00 +4°C° 0 mm 7 mps 735 mmHg 83%
    09:00 +5°C° 0.1 mm 7 mps 736 mmHg 81%
    10:00 +6°C° 0.1 mm 7 mps 737 mmHg 79%
    11:00 +6°C° 0.1 mm 7 mps 737 mmHg 78%
    12:00 +8°C° 0.1 mm 7 mps 738 mmHg 74%
    13:00 +9°C° 0.1 mm 7 mps 738 mmHg 71%
    14:00 +10°C° 0.1 mm 7 mps 739 mmHg 67%
    15:00 +10°C° 0.1 mm 6 mps 739 mmHg 67%
    16:00 +10°C° 0.1 mm 6 mps 740 mmHg 68%
    17:00 +10°C° 0.1 mm 5 mps 741 mmHg 68%
    18:00 +9°C° 0.1 mm 5 mps 741 mmHg 74%
    19:00 +8°C° 0.1 mm 5 mps 741 mmHg 80%
    20:00 +7°C° 0.1 mm 5 mps 742 mmHg 86%
    21:00 +7°C° 0 mm 5 mps 742 mmHg 89%
    22:00 +7°C° 0 mm 5 mps 742 mmHg 91%
    23:00 +6°C° 0 mm 5 mps 743 mmHg 93%

    19 September, Thursday

    Time Temperature Precipitation Wind Pressure Humidity
    00:00 +7°C° 0 mm 5 mps 743 mmHg 91%
    01:00 +7°C° 0 mm 5 mps 743 mmHg 90%
    02:00 +7°C° 0 mm 5 mps 744 mmHg 88%
    03:00 +7°C° 0 mm 5 mps 744 mmHg 88%
    04:00 +6°C° 0 mm 5 mps 744 mmHg 87%
    05:00 +6°C° 0 mm 5 mps 744 mmHg 87%
    06:00 +6°C° 0 mm 5 mps 744 mmHg 86%
    07:00 +6°C° 0 mm 5 mps 745 mmHg 86%
    08:00 +6°C° 0 mm 5 mps 745 mmHg 85%
    09:00 +7°C° 0 mm 5 mps 745 mmHg 80%
    10:00 +10°C° 0 mm 4 mps 746 mmHg 75%
    11:00 +11°C° 0 mm 4 mps 746 mmHg 70%
    12:00 +11°C° 0.4 mm 4 mps 746 mmHg 69%
    13:00 +11°C° 0.4 mm 4 mps 746 mmHg 68%
    14:00 +12°C° 0.4 mm 4 mps 746 mmHg 68%
    15:00 +11°C° 0.2 mm 4 mps 746 mmHg 70%
    16:00 +11°C° 0.2 mm 3 mps 746 mmHg 72%
    17:00 +11°C° 0.2 mm 3 mps 746 mmHg 74%
    18:00 +10°C° 0.1 mm 3 mps 746 mmHg 79%
    19:00 +8°C° 0.1 mm 3 mps 746 mmHg 83%
    20:00 +7°C° 0.1 mm 2 mps 746 mmHg 88%
    21:00 +7°C° 0 mm 3 mps 746 mmHg 88%
    22:00 +7°C° 0 mm 3 mps 746 mmHg 88%
    23:00 +7°C° 0 mm 3 mps 746 mmHg 88%

    20 September, Friday

    Time Temperature Precipitation Wind Pressure Humidity
    00:00 +5°C° 0 mm 4 mps 746 mmHg 90%
    01:00 +4°C° 0 mm 4 mps 746 mmHg 91%
    02:00 +4°C° 0 mm 4 mps 746 mmHg 93%
    03:00 +3°C° 0 mm 5 mps 747 mmHg 94%
    04:00 +2°C° 0 mm 5 mps 747 mmHg 95%
    05:00 +2°C° 0 mm 5 mps 747 mmHg 95%
    06:00 +2°C° 0 mm 5 mps 747 mmHg 91%
    07:00 +3°C° 0 mm 6 mps 747 mmHg 87%
    08:00 +3°C° 0 mm 6 mps 747 mmHg 83%
    09:00 +4°C° 0.2 mm 6 mps 748 mmHg 82%
    10:00 +5°C° 0.2 mm 5 mps 748 mmHg 81%
    11:00 +6°C° 0.2 mm 5 mps 748 mmHg 79%
    12:00 +7°C° 0.2 mm 5 mps 748 mmHg 73%
    13:00 +8°C° 0.2 mm 5 mps 748 mmHg 67%
    14:00 +9°C° 0.2 mm 5 mps 748 mmHg 60%
    15:00 +10°C° 0.4 mm 4 mps 748 mmHg 64%
    16:00 +8°C° 0.4 mm 4 mps 749 mmHg 68%
    17:00 +8°C° 0.4 mm 4 mps 749 mmHg 72%
    18:00 +6°C° 0 mm 4 mps 750 mmHg 77%
    19:00 +5°C° 0 mm 3 mps 750 mmHg 83%
    20:00 +4°C° 0 mm 3 mps 751 mmHg 88%
    21:00 +3°C° 0 mm 3 mps 751 mmHg 90%
    22:00 +3°C° 0 mm 3 mps 751 mmHg 91%
    23:00 +2°C° 0 mm 3 mps 752 mmHg 92%

    21 September, Saturday

    Time Temperature Precipitation Wind Pressure Humidity
    00:00 +2°C° 0 mm 3 mps 752 mmHg 93%
    01:00 +1°C° 0 mm 3 mps 752 mmHg 93%
    02:00 +1°C° 0 mm 3 mps 752 mmHg 94%
    03:00 +1°C° 0 mm 3 mps 752 mmHg 93%
    04:00 +1°C° 0 mm 3 mps 752 mmHg 93%
    05:00 0°C° 0 mm 3 mps 752 mmHg 92%
    06:00 +2°C° 0 mm 2 mps 753 mmHg 88%
    07:00 +3°C° 0 mm 2 mps 753 mmHg 83%
    08:00 +4°C° 0 mm 2 mps 753 mmHg 79%
    09:00 +6°C° 0 mm 2 mps 753 mmHg 72%
    10:00 +7°C° 0 mm 2 mps 753 mmHg 65%
    11:00 +9°C° 0 mm 2 mps 754 mmHg 59%
    12:00 +9°C° 0 mm 2 mps 753 mmHg 57%
    13:00 +10°C° 0 mm 3 mps 753 mmHg 56%
    14:00 +11°C° 0 mm 3 mps 753 mmHg 54%
    15:00 +11°C° 0 mm 3 mps 753 mmHg 58%
    16:00 +10°C° 0 mm 2 mps 753 mmHg 61%
    17:00 +10°C° 0 mm 2 mps 753 mmHg 65%
    18:00 +9°C° 0 mm 2 mps 753 mmHg 70%
    19:00 +9°C° 0 mm 1 mps 753 mmHg 75%
    20:00 +8°C° 0 mm 1 mps 753 mmHg 80%
    21:00 +7°C° 0 mm 1 mps 753 mmHg 83%
    22:00 +7°C° 0 mm 1 mps 753 mmHg 86%
    23:00 +6°C° 0 mm 1 mps 753 mmHg 89%
    Show more